Location: Newark
(39.0622°N, 106.5590°E)
Time: 02:36:12
(UTC+00:00)

Vanguard 2 Rocket - Pass Details

Date: 25 January 2020
Orbit: 553 x 3327 km, 32.9° (Epoch: 26 February)

Event Time Altitude Azimuth Distance (km) Brightness Sun altitude
Rises 01:17:24 0° 267° (W) 3,403 9.4 11.1°
Reaches altitude 10° 01:19:32 10° 261° (W) 2,687 8.9 11.4°
Maximum altitude 01:25:46 48° 189° (S) 1,703 8.8 12.4°
Drops below altitude 10° 01:36:37 10° 120° (ESE) 4,584 12.8 14.0°
Sets 01:41:25 0° 116° (ESE) 6,047 12.7 14.7°
